Simultaneous Nadir Overpasses (SNOs) Predictions

Prediction of SNOs between AQUA and NOAA-19 Satellite Orbit:

Table of predicted SNOs for the next 14.0 days since TLE Epoch: 3/29/2013
Index Date (AQUA) Time (AQUA) Lat,Lon (AQUA) SZA (AQUA ) Date (NOAA-19) Time (NOAA-19) Lat,Lon (NOAA-19) SZA (NOAA-19 ) Distance(km) Time Diff (sec)
1 03/29/2013 17:04:16 78.44, 172.61 90.85 03/29/2013 17:03:03 77.93, 175.12 90.62 80.85 73
2 03/29/2013 17:39:30 -46.14, 110.50 135.89 03/29/2013 17:39:28 -46.05, 110.00 136.10 39.66 2
3 03/31/2013 21:47:00 81.49, 131.36 84.51 03/31/2013 21:45:47 80.84, 132.62 84.29 76.14 73
4 03/31/2013 22:23:50 -46.08, 39.44 136.73 03/31/2013 22:23:51 -45.99, 38.94 136.93 39.96 1
5 04/03/2013 02:29:35 80.86, 103.17 77.70 04/03/2013 02:28:22 80.29, 101.58 77.49 69.92 73
6 04/03/2013 03:08:11 -46.09, -31.64 137.50 04/03/2013 03:08:15 -45.99, -32.15 137.71 40.41 4
7 04/05/2013 07:12:03 76.42, 59.43 70.56 04/05/2013 07:10:50 76.07, 57.60 70.35 62.18 73
8 04/05/2013 07:52:31 -46.06,-102.71 138.29 04/05/2013 07:52:38 -45.94,-103.22 138.52 40.95 7
9 04/07/2013 11:54:23 70.16, 1.91 63.06 04/07/2013 11:53:10 69.95, 0.66 62.86 52.77 73
10 04/07/2013 12:36:52 -46.11,-173.81 139.00 04/07/2013 12:37:03 -46.02,-174.33 139.21 41.56 11
11 04/09/2013 16:36:35 62.96, -61.50 55.26 04/09/2013 16:35:22 62.83, -62.28 55.07 41.63 73
12 04/09/2013 17:21:11 -46.07, 115.13 139.78 04/09/2013 17:21:26 -45.98, 114.60 139.99 42.20 15
13 04/11/2013 21:18:40 55.14,-127.57
